Kuchera_Ratio
0.0 0.0 0.0 0.0 0.0 0.0 0.0 0.0 0.0 2.1 0.0 0.0 0.0 0.0 0.0 0.0 0.0 0.0 0.0 0.0 0.0 0.0 0.0 0.0 0.0 0.0 0.0 0.0 0.0 0.0 0.0 0.0 0.0 0.0 0.0 0.0 0.0 0.0
0.0 0.0 0.0 0.0 0.0 0.0 0.0 0.0 0.0 0.0 0.0 0.0 0.0 0.0 0.0 0.0 0.0 0.0 0.0 0.0 0.0 0.0 0.0 0.0 0.0 0.0 0.0 0.0 0.0 0.0 0.0 0.0 0.0 0.0 0.0 0.0 0.0 0.0
0.0 0.0 0.0 0.0 0.0 0.0 0.0 0.0 0.0 0.0 0.0 0.0 0.0 0.0 0.0 0.0 0.0 0.0 0.0 0.0 0.0 0.0 0.0 0.0 0.0 0.0 0.0 0.0 0.0 0.0 0.0 0.0 0.0 0.0 0.0 0.0 0.0 0.0
0.0 0.0 0.0 0.0 0.0 0.0 0.0 0.0 0.0 0.0 0.0 0.0 0.0 0.0 0.0 0.0 0.0 0.0 0.0 0.0 0.0 0.0 0.0 0.0 0.0 0.0 0.0 0.0 0.0 0.0 0.0 0.0 0.0 0.0 0.0 0.0 0.0 0.0
0.0 0.0 0.0 0.0 0.0 0.0 0.0 0.0 0.0 0.0 0.0 0.0 0.0 0.0 0.0 0.0 0.0 0.0 0.0 0.0 0.0 0.0 0.0 0.0 0.0 0.0 0.0 0.0 0.0 0.0 0.0 0.0 0.0 0.0 0.0 0.0 0.0 0.0
0.0 0.0 0.0 0.0 0.0 0.0 0.0 0.0 0.0 0.0 0.0 0.0 0.0 0.0 0.0 0.0 0.0 0.0 0.0 0.0 0.0 0.0 0.0 0.0 0.0 0.0 0.0 0.0 0.0 0.0 0.0 0.0 0.0 0.0 0.0 0.2 0.6 0.0
0.0 0.0 0.0 0.0 0.0 0.0 0.0 0.0 0.0 0.0 0.0 0.0 0.0 0.0 0.0 0.0 0.4 0.0 0.0 0.0 0.0 0.0 0.3 0.3 0.0 0.0 0.0 0.0 0.0 0.0 0.0 0.0 0.0 0.0 0.0 0.0 0.4 0.4
0.0 0.0 0.0 0.0 0.0 0.0 0.0 0.0 0.0 0.0 0.0 0.0 0.6 3.0 1.7 0.6 0.0 0.7 2.4 5.8 9.1 0.0 2.0 1.6 0.0 3.6 0.1 0.0 0.0 0.0 0.0 0.0 0.0 0.0 0.0 0.6 0.8 1.2
0.0 0.0 0.0 0.0 0.0 0.0 0.0 0.0 0.0 0.0 0.0 0.0 1.0 3.3 4.4 2.2 1.9 2.7 4.1 7.1 9.2 6.6 3.7 7.4 5.3 5.1 1.4 0.0 0.0 0.0 0.0 0.0 0.0 0.0 0.4 0.8 1.4 1.8
0.0 0.0 0.0 0.0 0.0 0.2 1.6 3.4 2.2 0.4 0.0 0.2 2.6 2.0 1.2 0.0 0.0 2.4 3.1 7.5 7.9 5.9 5.5 10.2 6.4 6.0 5.1 0.4 0.0 0.0 0.0 0.0 0.0 0.0 0.4 0.4 1.0 1.6
0.0 0.0 0.4 2.4 0.8 1.6 6.2 8.2 7.0 4.6 0.0 0.0 0.0 0.0 0.0 0.0 0.0 3.7 6.0 10.6 12.4 9.8 6.8 6.9 7.8 6.1 5.4 5.9 1.7 0.0 0.0 0.2 0.0 0.4 0.4 0.0 0.4 1.0
7.0 4.0 3.4 4.2 4.4 4.8 8.6 10.2 12.0 9.4 6.6 5.6 5.4 3.5 1.4 3.4 3.2 1.6 7.2 11.8 12.7 12.9 8.3 8.7 8.4 7.7 12.1 7.2 7.5 4.1 3.6 1.5 0.0 0.0 0.0 0.0 0.0 2.8
11.2 10.4 8.8 5.0 5.2 5.8 6.4 10.6 11.4 9.0 9.0 8.6 7.8 7.0 6.4 3.8 7.4 7.8 5.1 7.8 10.4 11.3 8.8 7.9 8.2 9.9 10.1 12.9 10.1 10.2 7.6 6.8 4.0 4.6 2.4 0.8 0.2 1.4
12.0 11.2 10.4 7.4 7.2 7.2 8.2 7.0 6.4 8.0 9.4 9.6 10.0 8.8 7.4 6.2 5.2 5.6 4.8 5.0 4.7 7.8 4.4 5.6 9.2 10.6 12.3 13.7 14.2 11.7 11.0 8.7 8.0 9.5 8.0 4.4 1.8 1.0
11.8 10.4 9.6 9.0 8.6 9.2 5.8 6.0 7.0 9.0 9.4 10.4 10.6 10.4 7.6 4.6 5.8 7.6 5.2 4.2 4.5 4.1 2.8 3.7 9.4 10.0 11.2 13.8 14.5 12.8 12.6 11.8 10.5 9.6 9.7 9.6 9.7 8.0
12.7 13.4 13.2 12.1 12.7 11.8 10.8 9.6 9.2 8.8 10.4 9.0 9.6 8.0 7.0 6.8 8.0 7.6 9.4 7.4 8.6 9.4 4.8 3.5 6.1 9.6 11.7 12.3 12.4 13.2 12.5 13.9 11.1 10.5 9.0 10.0 8.0 6.0
15.2 14.4 13.9 13.2 13.6 13.6 13.5 12.7 12.5 12.2 12.6 12.8 8.2 7.6 8.6 7.6 8.6 8.6 8.9 8.7 11.0 12.5 11.5 10.4 6.7 6.5 9.2 10.8 13.3 12.8 12.3 12.0 11.2 10.7 11.5 11.3 10.9 9.5
15.7 15.9 14.5 14.7 15.4 15.3 15.4 15.0 14.5 14.4 13.9 13.1 12.6 8.4 9.4 8.4 8.8 8.2 9.4 10.8 12.2 12.3 11.7 10.7 10.0 10.5 10.8 10.2 7.2 12.1 12.1 11.4 11.7 12.2 12.1 12.4 12.0 11.0
15.7 14.7 14.9 15.4 16.0 15.5 15.8 15.8 16.1 15.2 14.5 14.4 14.0 12.9 8.8 9.8 10.0 10.3 10.4 11.4 12.2 12.4 12.3 11.4 10.7 12.2 14.2 15.5 9.5 5.4 12.1 12.3 12.4 12.7 12.4 12.3 12.4 12.2
15.5 15.8 16.3 16.7 17.0 16.7 16.9 16.9 16.4 16.3 16.6 16.2 15.5 14.3 11.0 9.9 10.0 10.8 11.0 12.1 12.3 12.2 12.6 11.7 11.5 11.4 13.3 14.9 14.2 12.5 7.0 13.1 13.2 13.4 12.7 12.6 12.7 6.6
16.1 16.6 17.7 17.4 17.6 17.5 17.7 17.5 17.7 17.4 17.7 17.7 16.9 15.5 14.8 13.2 11.7 10.9 11.1 11.6 12.0 12.0 13.3 12.6 10.5 11.0 12.3 12.7 15.3 13.9 12.2 6.8 11.0 13.5 13.5 13.9 14.5 12.2
18.5 18.0 17.8 18.0 18.4 18.1 18.5 18.5 18.5 18.7 18.3 18.3 18.3 16.8 16.5 16.7 16.1 12.9 11.2 11.8 12.6 12.8 12.7 11.4 10.6 11.0 12.0 13.0 14.4 13.9 11.3 12.6 10.4 8.4 9.2 12.4 14.9 16.6
20.1 19.1 19.2 20.0 19.1 19.1 18.7 19.8 19.7 19.7 19.2 18.8 18.8 18.5 18.4 18.7 17.4 16.9 11.8 12.2 12.5 13.3 12.7 12.1 11.1 10.8 11.4 11.7 13.3 13.6 12.4 11.8 11.0 11.3 12.3 10.2 9.8 10.2